FW1577 Weather Reports


Display with metric or nautical units.
time (UTC)temp
F
wind
direction
speed
MPH
gust
MPH
rain 1hr
in
rain 24hr
in
rain mn
in
humidity
%
barometer
mb
20240622090030 43 96 0.0 0.0 0.00 0.00 0.00 88 1028.1
20240622084532 43 105 0.0 0.0 0.00 0.00 0.00 88 1028.0
20240622083029 43 107 0.0 3.0 0.00 0.00 0.00 87 1028.0
20240622081537 44 101 0.0 2.0 0.00 0.00 0.00 86 1027.8
20240622080035 45 125 0.0 0.0 0.00 0.00 0.00 85 1027.8
20240622074528 46 255 0.0 3.0 0.00 0.00 0.00 83 1027.8
20240622073030 47 205 0.0 3.0 0.00 0.00 0.00 81 1027.7
20240622071525 48 219 0.0 3.0 0.00 0.00 0.00 79 1027.6
20240622070027 49 236 1.0 5.0 0.00 0.00 0.00 78 1027.7
20240622064525 50 249 4.0 9.0 0.00 0.00 0.00 76 1027.6
20240622063025 50 259 3.0 8.0 0.00 0.00 0.00 76 1027.6
20240622061523 51 232 1.0 9.0 0.00 0.00 0.00 76 1027.6
20240622060027 51 264 4.0 12.0 0.00 0.00 0.00 75 1027.6
20240622054526 52 298 2.0 9.0 0.00 0.00 0.00 76 1027.6
20240622053021 52 286 4.0 10.0 0.00 0.00 0.00 75 1027.5
20240622051522 52 198 3.0 13.0 0.00 0.00 0.00 76 1027.6
20240622050021 52 176 3.0 10.0 0.00 0.00 0.00 75 1027.4
20240622044519 52 246 5.0 11.0 0.00 0.00 0.00 74 1027.4
20240622043018 52 233 6.0 9.0 0.00 0.00 0.00 74 1027.3
20240622041519 52 222 4.0 11.0 0.00 0.00 0.00 75 1027.4
20240622040016 52 252 5.0 9.0 0.00 0.00 0.00 74 1027.6
20240622034516 52 264 1.0 8.0 0.00 0.00 0.00 77 1027.7
20240622033014 52 280 3.0 9.0 0.00 0.00 0.00 76 1027.7
20240622031512 52 321 3.0 9.0 0.00 0.00 0.00 77 1027.9
20240622030016 52 301 3.0 8.0 0.00 0.00 0.00 78 1028.1
20240622024513 51 303 4.0 11.0 0.00 0.00 0.00 78 1028.4
20240622023009 52 324 3.0 6.0 0.00 0.00 0.00 78 1028.6
20240622021509 51 326 5.0 11.0 0.00 0.00 0.00 80 1028.7
20240622020008 51 229 3.0 7.0 0.00 0.00 0.00 78 1029.0
20240622014505 51 271 1.0 6.0 0.00 0.00 0.00 80 1029.2
20240622013002 50 307 2.0 7.0 0.00 0.00 0.00 82 1029.4
20240622011559 50 335 2.0 9.0 0.00 0.00 0.00 84 1029.6
20240622010055 49 239 4.0 10.0 0.00 0.00 0.00 86 1029.7
20240622004553 49 223 2.0 8.0 0.00 0.00 0.00 87 1029.8
20240622003049 48 285 3.0 7.0 0.00 0.00 0.00 87 1029.7
20240622001607 48 200 1.0 6.0 0.00 0.00 0.00 88 1029.8
20240622000045 47 231 1.0 5.0 0.00 0.00 0.00 95 1029.9
20240621234542 46 252 0.0 5.0 0.00 0.00 0.00 98 1029.7
20240621233043 45 292 0.0 2.0 0.00 0.00 0.00 98 1029.6
20240621231539 43 129 0.0 0.0 0.00 0.00 0.00 98 1029.6
20240621230036 43 113 0.0 1.0 0.00 0.00 0.00 98 1029.6
20240621224534 42 220 0.0 2.0 0.00 0.00 0.00 98 1029.6
20240621223030 41 178 0.0 0.0 0.00 0.00 0.00 98 1029.5
20240621221530 41 176 0.0 0.0 0.00 0.00 0.00 98 1029.4
20240621220029 41 278 0.0 2.0 0.00 0.00 0.00 98 1029.3
20240621214527 40 90 1.0 3.0 0.00 0.00 0.00 97 1029.1
20240621213025 40 90 0.0 1.0 0.00 0.00 0.00 97 1029.0
20240621211523 39 87 0.0 2.0 0.00 0.00 0.00 96 1028.9
20240621210021 40 96 0.0 1.0 0.00 0.00 0.00 97 1028.7
20240621204519 40 97 1.0 2.0 0.00 0.00 0.00 97 1028.5
20240621203030 40 94 0.0 2.0 0.00 0.00 0.00 97 1028.4
20240621201516 40 93 0.0 0.0 0.00 0.00 0.00 96 1028.3
20240621200016 41 91 0.0 1.0 0.00 0.00 0.00 98 1028.2
20240621194514 40 88 0.0 0.0 0.00 0.00 0.00 97 1028.1
20240621193023 40 87 0.0 0.0 0.00 0.00 0.00 97 1027.9
20240621191513 40 90 0.0 1.0 0.00 0.00 0.00 97 1027.7
20240621190008 39 87 0.0 1.0 0.00 0.00 0.00 97 1027.6
20240621184508 39 87 0.0 1.0 0.00 0.00 0.00 96 1027.4
20240621183007 39 87 0.0 2.0 0.00 0.00 0.00 96 1027.5
20240621181505 39 94 0.0 0.0 0.00 0.00 0.00 95 1027.6
20240621180002 40 86 0.0 2.0 0.00 0.00 0.00 95 1027.4
20240621174612 40 97 2.0 3.0 0.00 0.00 0.00 95 1027.6
20240621173058 42 207 0.0 2.0 0.00 0.00 0.00 97 1027.4
20240621171559 41 118 0.0 1.0 0.00 0.00 0.00 94 1027.6
20240621170058 41 94 1.0 2.0 0.00 0.00 0.00 96 1027.4
20240621164619 42 98 1.0 2.0 0.00 0.00 0.00 96 1027.3
20240621163053 40 105 0.0 2.0 0.00 0.00 0.00 94 1027.2
20240621161617 41 101 0.0 2.0 0.00 0.00 0.00 96 1027.2
20240621160105 40 88 1.0 2.0 0.00 0.00 0.00 95 1027.3
20240621154550 40 90 1.0 2.0 0.00 0.00 0.00 95 1027.3
20240621153051 40 91 2.0 2.0 0.00 0.00 0.00 93 1027.2
20240621151553 41 88 0.0 3.0 0.00 0.00 0.00 93 1027.0
20240621150045 40 91 0.0 3.0 0.00 0.00 0.00 92 1027.1
20240621144540 41 117 0.0 0.0 0.00 0.00 0.00 90 1027.0
20240621143038 43 117 0.0 0.0 0.00 0.00 0.00 89 1027.0
20240621141532 45 116 0.0 1.0 0.00 0.00 0.00 84 1027.1
20240621140028 47 120 1.0 3.0 0.00 0.00 0.00 85 1027.2
20240621134527 45 100 1.0 3.0 0.00 0.00 0.00 90 1027.2
20240621133027 46 145 0.0 1.0 0.00 0.00 0.00 91 1027.2
20240621131525 46 189 0.0 3.0 0.00 0.00 0.00 91 1027.1
20240621130031 45 226 0.0 3.0 0.00 0.00 0.00 91 1026.9
20240621124523 46 198 0.0 2.0 0.00 0.00 0.00 90 1026.8
20240621123020 46 266 0.0 4.0 0.00 0.00 0.00 90 1026.8
20240621121520 46 195 0.0 10.0 0.00 0.00 0.00 90 1026.8
20240621120023 46 259 2.0 6.0 0.00 0.00 0.00 90 1026.6
20240621114521 46 230 0.0 0.0 0.00 0.00 0.00 89 1026.6
20240621113015 46 230 0.0 4.0 0.00 0.00 0.00 90 1026.4
20240621111514 45 120 1.0 5.0 0.00 0.00 0.00 91 1026.4
20240621110014 44 218 0.0 2.0 0.00 0.00 0.00 91 1026.2
20240621104515 44 88 0.0 1.0 0.00 0.00 0.00 90 1026.1
20240621103015 44 95 1.0 2.0 0.00 0.00 0.00 91 1025.9
20240621101516 44 96 1.0 2.0 0.00 0.00 0.00 93 1025.8
20240621100008 43 126 0.0 1.0 0.00 0.00 0.00 91 1025.5
20240621094506 44 129 0.0 0.0 0.00 0.00 0.00 91 1025.4
20240621093005 45 128 0.0 1.0 0.00 0.00 0.00 91 1025.4
20240621091504 45 86 0.0 1.0 0.00 0.00 0.00 91 1025.2